Overview Statistics Trail Chart Weather Telemetry Raw packets
 

This is the latest recevied weather packets stored in our database for station/object KI6SYE. If no packets are shown the sender has not sent any weather packets the latest 10 day(s).

<< 27 28 29 30 31 32 33 >>
Time Temp. Humidity Pressure Rain* Wind** Luminosity Snow
1788491060 20.56° C 84% 1011.4 hPa 0 mm - 0 W/m² -
1788490755 20.56° C 84% 1011.4 hPa 0 mm - 0 W/m² -
1788490451 20.56° C 84% 1011.4 hPa 0 mm - 0 W/m² -
1788490151 20.56° C 84% 1011.1 hPa 0 mm - 0 W/m² -
1788489846 20.56° C 84% 1011.4 hPa 0 mm - 0 W/m² -
1788489542 20.56° C 84% 1011.4 hPa 0 mm - 0 W/m² -
1788489238 20.56° C 84% 1011 hPa 0 mm - 0 W/m² -
1788488937 20.56° C 85% 1011.3 hPa 0 mm - 1 W/m² -
1788488634 20.56° C 86% 1011.2 hPa 0 mm - 1 W/m² -
1788488330 20.56° C 86% 1011.3 hPa 0 mm - 3 W/m² -
1788488025 20.56° C 86% 1011.5 hPa 0 mm - 5 W/m² -
1788487747 20.56° C 85% 1011.3 hPa 0 mm - 7 W/m² -
1788487416 20.56° C 84% 1011.2 hPa 0 mm - 10 W/m² -
1788487114 21.11° C 84% 1011.1 hPa 0 mm - 13 W/m² -
1788486810 21.11° C 83% 1011.3 hPa 0 mm - 17 W/m² -
1788486508 21.11° C 82% 1011.1 hPa 0 mm - 21 W/m² -
1788486203 21.11° C 81% 1011.3 hPa 0 mm - 26 W/m² -
1788485899 21.67° C 80% 1011.4 hPa 0 mm - 34 W/m² -
1788485595 21.67° C 80% 1011.5 hPa 0 mm - 38 W/m² -
1788485291 21.67° C 79% 1011.4 hPa 0 mm - 45 W/m² -
1788484985 21.67° C 78% 1011.4 hPa 0 mm - 50 W/m² -
1788484684 21.67° C 78% 1011.4 hPa 0 mm - 57 W/m² -
1788484379 21.67° C 78% 1011.2 hPa 0 mm - 67 W/m² -
1788484074 21.67° C 78% 1011.2 hPa 0 mm - 78 W/m² -
1788483771 21.67° C 78% 1011.4 hPa 0 mm - 88 W/m² -

* Rain latest hour (hover to see other rain measurements)
** Current wind speed in m/s (hover to see current wind gust speed)